This is the latest recevied weather packets stored in our database for station/object VE8SKI. If no packets are shown the sender has not sent any weather packets the latest 10 day(s).
| Time | Temp. | Humidity | Pressure | Rain* | Wind** | Luminosity | Snow |
|---|---|---|---|---|---|---|---|
| 1777774309 | 2.78° C | 73% | 1008 hPa | 0 mm | 2.24 m/s, 97° | - | - |
| 1777774009 | 2.78° C | 73% | 1007.8 hPa | 0 mm | 2.24 m/s, 69° | - | - |
| 1777773710 | 2.78° C | 72% | 1007.8 hPa | 0 mm | 2.24 m/s, 105° | - | - |
| 1777773410 | 2.78° C | 72% | 1007.7 hPa | 0 mm | 3.13 m/s, 87° | - | - |
| 1777773108 | 3.33° C | 72% | 1007.7 hPa | 0 mm | 2.68 m/s, 97° | - | - |
| 1777772808 | 3.33° C | 71% | 1007.7 hPa | 0 mm | 1.79 m/s, 77° | - | - |
| 1777772509 | 3.33° C | 71% | 1007.5 hPa | 0 mm | 2.68 m/s, 101° | - | - |
| 1777772209 | 3.33° C | 70% | 1007.5 hPa | 0 mm | 2.68 m/s, 48° | - | - |
| 1777771909 | 3.89° C | 70% | 1007.6 hPa | 0 mm | 3.13 m/s, 128° | - | - |
| 1777771610 | 3.89° C | 70% | 1007.6 hPa | 0 mm | 2.24 m/s, 117° | - | - |
| 1777771308 | 3.89° C | 70% | 1007.7 hPa | 0 mm | 2.24 m/s, 84° | - | - |
| 1777771008 | 3.89° C | 69% | 1007.8 hPa | 0 mm | 2.68 m/s, 128° | - | - |
| 1777770709 | 3.89° C | 69% | 1007.6 hPa | 0 mm | 1.79 m/s, 148° | - | - |
| 1777770409 | 3.89° C | 69% | 1007.5 hPa | 0 mm | 1.79 m/s, 68° | - | - |
| 1777770109 | 3.89° C | 69% | 1007.3 hPa | 0 mm | 2.24 m/s, 97° | - | - |
| 1777769810 | 3.89° C | 69% | 1007.3 hPa | 0 mm | 2.68 m/s, 100° | - | - |
| 1777769508 | 3.89° C | 69% | 1007.3 hPa | 0 mm | 1.79 m/s, 76° | - | - |
| 1777769208 | 3.89° C | 68% | 1006.9 hPa | 0 mm | 2.68 m/s, 35° | - | - |
| 1777768909 | 4.44° C | 68% | 1006.5 hPa | 0 mm | 2.68 m/s, 65° | - | - |
| 1777768609 | 4.44° C | 67% | 1006.2 hPa | 0 mm | 2.24 m/s, 83° | - | - |
| 1777768309 | 4.44° C | 67% | 1005.9 hPa | 0 mm | 3.13 m/s, 44° | - | - |
| 1777768010 | 4.44° C | 66% | 1006.1 hPa | 0 mm | 1.79 m/s, 155° | - | - |
| 1777767707 | 4.44° C | 66% | 1006.3 hPa | 0 mm | 2.68 m/s, 100° | - | - |
| 1777767408 | 5° C | 65% | 1006.4 hPa | 0 mm | 2.68 m/s, 162° | - | - |
| 1777767108 | 5° C | 65% | 1006.5 hPa | 0 mm | 1.79 m/s, 141° | - | - |
* Rain latest hour (hover to see other rain measurements)
** Current wind speed in m/s (hover to see current wind gust speed)